Vertical_Velocity
-1 -2 -2 -2 -2 -2 -2 -2 -2 -2 -2 -2 -2 -2 -2 -2 -2 -2 -1 -0 -1 -2 -2 -1 -0 0 0 1 1 -0 -1 -0 1 1 1 1 2 2 2 1 1 1 1 -0 1 1 1 0 1 -1 -2 -0 2 2 2 4 5 4 2 2 2 3 4 3 2 3 5 4 3
-1 -1 -2 -2 -2 -2 -2 -2 -2 -2 -2 -2 -2 -2 -2 -2 -2 -2 -1 0 -1 -1 -1 -1 -0 1 1 0 1 1 -0 -1 0 1 1 1 2 2 2 1 0 0 0 0 0 -0 -0 -0 -0 -2 -3 -2 2 2 2 4 6 4 1 1 3 4 3 0 1 4 6 4 3
-2 -2 -2 -2 -2 -2 -2 -2 -2 -1 -1 -2 -2 -1 -1 -2 -1 -1 -1 -0 -0 -0 -1 -1 -1 1 1 1 1 1 1 -0 -0 -0 -0 0 1 2 2 0 -0 -0 -0 0 -0 -0 -0 -0 -1 -3 -3 -2 0 1 2 3 5 3 0 0 3 4 2 -1 2 4 5 3 3
-1 -2 -2 -2 -2 -2 -2 -2 -2 -2 -2 -1 -2 -1 -1 -1 -1 -2 -1 -1 -0 -0 -0 -1 -1 -1 0 1 0 0 1 0 -0 -1 -1 -1 0 1 1 -0 -1 -1 -1 -0 -0 -0 -0 0 -2 -4 -4 -2 0 1 2 3 3 1 -1 1 2 2 1 -0 3 4 4 2 3
-1 -1 -1 -1 -2 -2 -2 -2 -2 -2 -2 -1 -1 -1 -2 -1 -2 -2 -2 -1 -1 -0 -0 -1 -2 -2 -1 -0 -1 -1 -1 -0 -1 -2 -2 -2 -1 -0 0 -1 -1 -1 -1 -0 -0 -0 0 1 -2 -4 -3 -1 0 1 2 4 1 -1 -2 -0 1 1 1 1 2 3 3 1 2
-1 -1 -1 -1 -1 -1 -1 -1 -1 -1 -1 -1 -1 -1 -1 -1 -1 -2 -2 -2 -2 -1 -1 -1 -2 -2 -2 -2 -2 -2 -2 -1 -1 -2 -2 -3 -2 -1 -1 -1 -1 -1 -1 -1 -0 -0 0 1 -2 -4 -3 -0 -0 1 2 5 1 -1 -2 -2 -1 0 1 1 2 3 3 1 2
1 0 0 0 0 -0 -0 -0 -0 -0 -0 -0 -0 -1 -1 -1 -1 -1 -2 -2 -2 -2 -1 -1 -2 -2 -3 -3 -3 -2 -2 -2 -2 -1 -2 -2 -2 -1 -1 -1 -1 -1 -1 -0 -0 -0 -0 1 -2 -4 -4 -0 -1 0 2 5 2 0 -0 -1 1 1 2 0 2 3 2 0 1
1 1 1 1 1 1 0 0 0 -0 -0 -0 0 -0 -0 -1 -1 -1 -1 -1 -1 -1 -1 -1 -2 -2 -2 -3 -3 -2 -2 -2 -2 -2 -1 -1 -2 -1 -1 -0 -1 -1 -0 0 -0 -1 -1 -0 -2 -3 -3 -1 -1 -0 1 4 1 1 1 2 3 3 3 2 3 2 1 -0 -1
1 1 1 1 1 1 1 1 1 0 0 0 1 1 0 -0 -0 -1 -1 -1 -1 -0 -0 -1 -1 -1 -2 -2 -2 -2 -2 -2 -2 -2 -2 -1 -2 -2 -1 0 -0 -0 -0 1 1 -0 -1 -2 -3 -3 -2 0 -1 -1 0 2 -1 -2 -1 2 4 4 4 4 4 2 0 -2 -2
-0 0 1 1 1 1 1 1 1 1 1 0 1 1 1 0 -0 -0 -0 -1 -0 0 0 0 -0 -1 -1 -1 -1 -1 -1 -1 -2 -2 -2 -1 -1 -1 -1 -1 -0 -0 0 1 1 0 -1 -3 -4 -3 -1 1 1 0 0 1 -1 -3 -4 -1 2 4 6 6 6 4 1 -1 -0
-1 -1 0 1 1 1 1 1 1 1 1 1 1 1 1 1 0 -0 -0 -0 -0 0 1 1 1 -0 -1 -0 0 0 -0 -1 -1 -1 -1 -1 -0 -0 -0 -1 -0 -0 0 1 2 0 -1 -3 -4 -3 -2 0 1 1 1 1 -1 -2 -3 -3 -2 -0 2 6 9 9 7 6 8
-2 -1 -1 0 0 1 1 1 1 1 1 1 1 1 1 1 0 -0 -0 -0 -0 0 1 2 2 1 -0 -0 0 1 1 0 -0 -1 -1 -1 -0 0 0 -0 -0 -0 0 1 2 0 -1 -4 -3 -2 -1 -0 1 1 1 2 1 -1 -2 -1 -1 -3 -4 -1 5 8 8 8 6
-1 -1 -1 -0 -0 0 0 0 1 1 1 1 1 1 1 1 1 0 -0 -1 -1 -0 1 2 3 2 1 0 0 1 1 1 1 0 -0 -0 0 0 0 -0 0 0 0 0 1 0 -1 -3 -2 -1 -1 -1 0 1 1 2 1 -0 -1 -0 0 -1 -2 -2 -0 1 1 0 -0
-0 -1 -0 -0 -0 -0 -0 0 0 1 1 1 1 1 1 0 1 1 0 -1 -1 -0 0 1 2 3 2 1 0 0 0 0 0 0 0 0 1 1 0 -0 0 0 0 -0 1 0 -1 -2 -2 -1 -1 -1 -0 1 1 2 0 -0 -0 0 0 -0 0 1 1 0 -1 -4 -3
0 0 0 0 -0 -0 -0 0 0 0 1 0 1 1 1 0 1 1 0 -1 -1 -1 -0 0 1 2 3 3 1 0 -0 -0 0 -0 -0 0 1 1 0 -0 -0 0 0 -0 -0 -0 -0 -1 -1 -1 -1 -1 -0 1 2 1 -0 -0 -0 1 0 1 1 2 2 2 -0 -2 -1
1 1 1 1 0 -0 -0 -0 -0 -0 0 0 1 1 1 -0 0 1 0 -1 -1 -1 -0 0 1 1 2 3 2 1 -0 -0 -0 -0 -0 -0 0 1 1 0 0 0 -0 -1 -1 -1 -0 0 0 -0 -1 -1 -0 1 1 1 -0 -0 -0 1 1 1 1 2 3 2 1 1 1
1 1 1 1 0 0 -0 -0 -0 -0 -0 -0 0 0 0 -0 -0 0 0 -0 -1 -1 -1 -0 1 1 1 1 2 1 0 -1 -1 -0 -0 -0 -0 -0 -0 0 1 0 0 -1 -1 -1 -0 1 1 0 -0 -1 -0 1 1 1 0 -0 -0 0 1 1 2 2 2 1 0 1 1
1 1 1 1 1 0 -0 -0 -0 -0 -0 -0 -0 0 0 0 -0 -0 -0 1 0 -1 -2 -1 1 1 1 -0 1 1 1 -1 -1 -1 -0 -0 -0 -0 -0 -0 0 0 0 -1 -1 -1 -0 1 1 0 -0 -1 -0 0 1 2 1 -0 -0 0 1 1 2 3 2 2 0 -1 -1
0 1 1 1 0 -0 -0 -1 -0 -0 -0 -0 -0 -0 -0 0 -0 -0 -1 0 1 -0 -2 -2 -0 1 1 1 -0 0 1 -0 -2 -1 -0 0 -0 -0 -1 -1 -1 -0 -0 -0 -1 -0 0 0 1 0 -0 -1 -1 -0 1 1 1 1 0 1 1 1 2 3 3 2 1 -0 -1
-0 -0 -0 -0 -0 -1 -1 -0 -0 -1 -1 -1 -1 -1 -1 -0 0 -0 -1 -1 0 0 -0 -2 -1 -0 0 1 -0 -0 0 1 -1 -2 -1 -0 -0 -0 -0 -0 -1 -1 -0 -0 -1 -0 -0 -0 -0 -0 -1 -1 -1 -1 0 1 1 1 1 1 1 1 2 3 3 3 2 1 0
-1 -1 -1 -1 -1 -1 -1 -1 -1 -1 -1 -1 -1 -1 -1 -0 0 0 -0 -1 -1 -0 -0 -0 -1 -1 -1 -0 -1 -1 -0 1 -0 -1 -2 -1 -1 -0 0 0 -1 -1 -1 -0 -0 -0 -0 -1 -1 -1 -1 -2 -2 -1 -0 1 1 1 1 1 1 2 2 3 3 3 3 2 1
-1 -1 -1 -1 -1 -1 -1 -1 -1 -1 -2 -2 -1 -1 -1 -0 0 0 0 -0 -0 -1 -0 -0 -0 -0 -1 -1 -1 -2 -2 -0 0 -0 -1 -1 -1 -1 0 0 -1 -2 -1 0 -0 -0 -1 -1 -1 -1 -1 -2 -2 -1 -0 1 0 0 1 1 2 2 3 3 3 3 3 3 2
-1 -1 -1 -1 -1 -1 -2 -2 -2 -2 -2 -2 -1 -1 -0 -0 0 1 1 0 -0 -0 -0 -0 -0 -0 -1 -1 -1 -2 -2 -2 -1 -0 0 0 -1 -1 -0 1 -1 -1 -1 0 0 -0 -1 -2 -2 -2 -1 -2 -2 -1 -0 0 0 0 0 1 2 3 3 3 4 3 3 3 3
-1 -1 -1 -1 -1 -1 -2 -2 -2 -2 -2 -1 -1 -0 0 0 1 0 0 -0 0 0 0 0 0 -0 -1 -1 -0 -1 -1 -2 -2 -2 -1 1 1 0 -0 -0 -0 -0 -0 1 1 -0 -1 -3 -4 -3 -1 -1 -1 -1 -0 0 -0 0 0 1 2 2 3 3 4 4 4 4 4
-1 -1 -1 -1 -1 -1 -1 -1 -1 -1 -1 -0 0 1 1 1 1 0 -0 -1 0 1 1 0 0 -0 -0 -1 -1 0 1 -0 -1 -2 -2 -1 0 1 1 0 0 0 1 1 1 1 -1 -3 -4 -4 -3 -2 -1 -0 -0 0 0 0 0 1 1 1 2 2 3 4 4 5 4
-1 -1 -1 -1 -1 -1 -1 -0 -0 -1 -0 0 1 1 1 1 1 1 -0 -0 0 1 2 1 0 -0 -0 -1 -1 -0 1 2 0 -1 -2 -3 -2 -0 1 1 0 0 1 2 2 1 0 -1 -3 -4 -5 -5 -3 -1 1 1 2 2 1 0 0 0 1 1 3 4 5 5 4
-1 -2 -2 -1 -1 -1 -0 -0 0 -0 0 1 1 1 1 1 1 1 1 0 1 1 2 2 1 1 -0 -0 -0 0 1 1 1 0 -1 -2 -2 -2 -1 1 1 1 1 2 1 1 1 -0 -1 -2 -4 -6 -7 -5 -2 0 3 4 4 2 1 1 1 1 2 4 4 4 4
-2 -2 -2 -2 -2 -1 -0 0 0 0 0 1 1 1 1 1 1 1 1 1 1 1 1 1 2 2 1 -0 0 1 1 1 1 1 -1 -2 -2 -1 -1 -0 0 1 1 2 1 1 1 0 0 -0 -1 -4 -6 -8 -7 -4 -1 2 4 4 3 3 3 2 2 3 4 3 3
-2 -2 -2 -2 -2 -1 -0 1 1 1 1 1 0 -0 -0 0 0 1 1 1 1 1 1 -0 0 1 1 0 0 1 1 1 1 0 -1 -2 -2 -2 -1 -0 0 1 2 3 1 1 0 -0 0 0 0 -1 -3 -6 -8 -7 -5 -2 1 3 4 5 5 4 4 4 3 3 3
-2 -2 -2 -2 -2 -1 -0 1 1 1 1 -0 -1 -1 -1 -1 -0 1 1 1 1 1 1 1 -0 -0 0 1 1 0 -0 0 1 1 -0 -2 -3 -2 -1 0 0 1 2 3 2 1 1 0 0 0 0 0 -1 -3 -5 -6 -6 -6 -4 -2 1 4 5 6 6 5 5 4 3
-1 -1 -2 -2 -2 -2 -1 0 1 1 0 -1 -1 -2 -2 -1 -1 -0 1 2 0 -0 1 2 0 -1 -1 2 2 1 -1 -1 0 0 -0 -1 -3 -3 -2 0 1 2 3 4 3 2 1 1 1 1 0 0 -1 -2 -4 -4 -4 -5 -6 -5 -2 1 4 5 5 6 6 6 5
-0 -0 -1 -2 -3 -2 -1 -0 -0 -0 -0 -0 -1 -2 -2 -1 -0 0 1 1 0 -1 -1 -0 -1 -2 -2 0 1 0 -0 -0 -0 -0 -0 -0 -3 -4 -3 -1 1 2 3 4 3 2 1 1 1 1 1 1 -0 -2 -3 -3 -3 -4 -4 -5 -4 -1 1 3 4 5 6 7 6
0 0 -0 -1 -3 -2 -1 -0 -0 -0 -0 -1 -1 -1 -1 -2 -1 -0 1 1 1 -1 -2 -3 -2 -2 -3 -2 -2 -2 -2 -0 -0 -0 -0 -0 -2 -3 -3 -2 1 3 4 4 2 2 1 2 2 1 1 1 -0 -2 -3 -2 -2 -2 -3 -3 -3 -2 -1 0 2 3 5 6 6
1 0 -0 -1 -2 -2 -2 -0 0 -0 -1 -2 -1 -0 1 -0 -2 -2 -1 1 0 -1 -2 -2 -1 -2 -3 -2 -2 -3 -4 -2 -0 0 0 0 -1 -2 -3 -2 1 3 4 4 2 1 1 1 1 1 1 1 -0 -2 -2 -1 -1 -1 -2 -2 -1 -1 -1 -0 1 2 3 5 4
2 0 -1 -2 -2 -2 -3 -2 -1 -1 -1 -2 -3 -1 0 1 -0 -1 -2 -1 -1 -2 -3 -3 -0 0 -1 -2 -1 -1 -2 -3 -2 -0 1 1 -0 -2 -3 -2 1 4 5 4 2 1 1 1 1 1 1 0 -1 -2 -2 -1 -1 -1 -0 0 -0 -0 0 1 1 1 2 3 3
2 -0 -3 -4 -4 -4 -4 -4 -3 -2 -2 -2 -3 -2 -2 -0 -0 0 0 -0 -2 -4 -4 -3 -1 1 0 -1 -0 -0 -0 -1 -2 -1 -0 2 1 -1 -3 -3 0 3 5 5 2 1 1 1 1 1 0 -1 -2 -2 -2 -1 -1 -0 1 1 1 1 2 2 1 1 2 3 3
1 -1 -3 -5 -6 -5 -5 -4 -4 -4 -4 -3 -2 -2 -2 -2 -2 -1 1 1 -2 -5 -5 -2 -1 0 1 1 -0 -1 -0 1 0 -1 -1 0 1 -1 -3 -4 -1 3 5 5 3 1 1 1 1 1 -0 -2 -3 -3 -2 -1 -1 -0 1 1 2 3 3 3 2 1 1 3 4
0 -0 -2 -5 -6 -6 -5 -5 -4 -5 -5 -4 -3 -2 -2 -2 -2 -1 -0 2 -1 -5 -6 -4 -2 -0 1 1 -1 -1 -0 3 3 1 -0 -1 0 -0 -2 -4 -2 2 5 5 3 2 1 1 1 1 0 -1 -3 -3 -2 -2 -2 -1 0 1 2 3 4 4 3 2 1 3 4
0 -0 -1 -3 -5 -6 -5 -5 -4 -4 -4 -5 -4 -3 -2 -2 -2 -2 -0 2 0 -2 -5 -5 -4 -1 0 1 -1 -2 -1 3 4 3 1 -1 -1 -1 -1 -4 -3 0 4 5 3 1 0 0 1 1 1 -1 -2 -3 -2 -2 -2 -1 -0 1 2 2 3 4 4 2 1 2 4
1 0 -1 -1 -3 -4 -5 -5 -3 -2 -2 -3 -4 -4 -3 -2 -3 -2 -0 1 1 -0 -2 -4 -4 -2 -0 1 -1 -2 -1 1 4 4 2 -0 -1 -1 -1 -2 -3 -0 2 4 3 1 -0 -0 0 1 1 -0 -2 -2 -2 -2 -2 -2 -1 1 2 2 2 3 3 3 2 2 4
1 0 -1 -1 -1 -2 -4 -5 -4 -2 -1 -2 -2 -3 -3 -3 -2 -1 -0 1 1 0 -1 -3 -3 -2 -0 1 -0 -1 -2 -0 2 4 3 1 -0 -0 -1 -1 -2 -1 1 3 2 1 -0 -1 -0 0 1 0 -1 -2 -1 -1 -2 -2 -1 1 2 1 1 1 2 2 2 2 3
Height
3082 3081 3079 3078 3077 3076 3075 3074 3073 3072 3071 3069 3069 3067 3066 3065 3064 3062 3061 3060 3059 3057 3056 3055 3054 3053 3052 3050 3049 3048 3046 3045 3044 3042 3041 3040 3039 3038 3036 3035 3034 3032 3031 3029 3028 3027 3025 3024 3023 3021 3019 3018 3017 3016 3015 3015 3014 3013 3012 3011 3010 3010 3009 3008 3007 3006 3006 3005 3004
3079 3078 3077 3075 3074 3073 3072 3070 3069 3069 3067 3066 3065 3064 3062 3061 3059 3058 3057 3056 3054 3053 3052 3050 3049 3048 3047 3045 3044 3043 3041 3040 3039 3037 3036 3035 3034 3033 3031 3030 3029 3027 3026 3025 3024 3022 3020 3019 3017 3016 3014 3013 3012 3011 3010 3010 3009 3008 3007 3007 3006 3005 3004 3003 3002 3002 3002 3000 2999
3076 3075 3074 3072 3071 3069 3068 3067 3066 3065 3064 3062 3061 3059 3058 3057 3055 3054 3053 3052 3050 3049 3047 3046 3044 3043 3042 3041 3039 3038 3037 3035 3034 3032 3031 3030 3029 3028 3027 3025 3024 3023 3021 3020 3019 3017 3016 3014 3013 3011 3009 3008 3007 3006 3006 3005 3005 3004 3002 3002 3001 3000 2999 2998 2998 2998 2997 2996 2995
3074 3072 3071 3069 3068 3066 3065 3063 3062 3061 3059 3058 3057 3056 3054 3053 3051 3050 3049 3047 3046 3044 3043 3041 3040 3039 3038 3036 3035 3034 3032 3031 3029 3028 3027 3025 3024 3024 3022 3021 3019 3018 3017 3016 3014 3013 3012 3010 3008 3006 3004 3003 3003 3002 3002 3001 3000 2999 2998 2997 2996 2995 2994 2994 2994 2993 2992 2991 2991
3071 3069 3068 3066 3064 3063 3061 3060 3059 3057 3056 3054 3053 3052 3050 3049 3047 3046 3044 3043 3042 3040 3039 3038 3036 3035 3034 3032 3031 3029 3028 3027 3025 3024 3022 3021 3020 3019 3018 3017 3016 3014 3013 3012 3010 3009 3008 3006 3004 3002 3000 2999 2998 2998 2998 2997 2996 2994 2994 2993 2992 2991 2991 2990 2989 2989 2988 2987 2986
3068 3066 3065 3063 3061 3060 3058 3057 3055 3054 3052 3051 3049 3048 3047 3045 3043 3042 3040 3039 3038 3036 3035 3034 3032 3031 3029 3028 3026 3025 3024 3023 3021 3020 3018 3017 3016 3015 3014 3013 3012 3010 3009 3008 3007 3005 3004 3002 2999 2998 2996 2995 2994 2994 2994 2994 2992 2991 2989 2989 2988 2987 2987 2986 2986 2985 2984 2983 2983
3065 3063 3062 3060 3058 3057 3055 3054 3052 3050 3049 3047 3046 3044 3043 3041 3040 3038 3037 3035 3034 3032 3031 3030 3029 3027 3025 3024 3023 3021 3020 3018 3017 3016 3014 3013 3012 3011 3010 3009 3008 3007 3005 3004 3003 3001 2999 2998 2996 2994 2992 2991 2990 2990 2990 2989 2988 2987 2985 2984 2984 2984 2983 2982 2982 2981 2980 2979 2979
3062 3060 3059 3057 3055 3054 3052 3050 3049 3047 3045 3044 3043 3041 3039 3038 3036 3035 3033 3032 3030 3029 3028 3026 3025 3023 3022 3020 3019 3017 3016 3014 3013 3012 3010 3009 3008 3007 3006 3005 3004 3003 3001 3000 2999 2997 2996 2994 2992 2989 2988 2987 2986 2986 2985 2985 2984 2983 2981 2981 2980 2979 2979 2978 2978 2978 2977 2976 2976
3059 3057 3055 3054 3052 3050 3049 3047 3045 3044 3042 3041 3039 3038 3036 3035 3033 3032 3030 3029 3027 3026 3024 3023 3022 3020 3018 3017 3015 3014 3012 3011 3009 3008 3006 3005 3004 3003 3002 3001 3000 2999 2998 2997 2995 2994 2992 2990 2988 2986 2984 2984 2983 2982 2981 2981 2979 2978 2977 2977 2976 2975 2975 2974 2974 2974 2973 2973 2973
3055 3054 3052 3050 3049 3047 3045 3044 3042 3041 3039 3038 3036 3035 3033 3031 3030 3028 3027 3025 3024 3023 3021 3020 3018 3017 3015 3014 3012 3010 3009 3007 3006 3004 3003 3001 3000 2999 2998 2997 2996 2995 2994 2993 2991 2990 2988 2985 2984 2982 2981 2980 2979 2978 2977 2976 2975 2973 2973 2973 2972 2972 2971 2970 2970 2969 2969 2969 2968
3052 3050 3049 3047 3045 3044 3042 3041 3039 3038 3036 3034 3033 3031 3030 3028 3027 3025 3024 3022 3021 3019 3018 3017 3015 3014 3012 3010 3009 3007 3006 3004 3002 3001 2999 2998 2996 2995 2994 2993 2992 2991 2990 2989 2988 2986 2984 2981 2980 2978 2977 2976 2975 2974 2973 2972 2970 2969 2968 2968 2968 2967 2967 2966 2966 2965 2965 2964 2964
3048 3047 3045 3044 3042 3040 3039 3037 3036 3034 3033 3031 3030 3028 3027 3025 3024 3022 3020 3019 3018 3016 3015 3014 3012 3011 3009 3007 3006 3004 3002 3001 2999 2997 2995 2994 2993 2991 2990 2989 2988 2987 2986 2985 2984 2982 2979 2977 2976 2974 2974 2973 2971 2970 2969 2968 2966 2965 2964 2963 2963 2963 2962 2962 2962 2961 2960 2959 2959
3045 3044 3042 3040 3039 3037 3035 3034 3032 3031 3029 3028 3026 3025 3024 3022 3021 3019 3017 3016 3014 3013 3012 3011 3009 3008 3006 3004 3003 3001 2999 2997 2995 2994 2992 2990 2989 2988 2986 2985 2984 2983 2982 2980 2979 2978 2975 2974 2972 2971 2969 2968 2967 2966 2965 2964 2962 2961 2959 2959 2959 2958 2958 2958 2958 2957 2956 2954 2954
3042 3040 3039 3037 3035 3033 3032 3030 3029 3027 3026 3024 3023 3022 3020 3019 3018 3016 3014 3013 3011 3009 3008 3007 3006 3005 3003 3001 2999 2997 2995 2994 2992 2990 2989 2987 2985 2984 2982 2981 2979 2978 2977 2976 2975 2973 2971 2969 2968 2967 2965 2964 2963 2962 2961 2959 2958 2957 2955 2955 2954 2954 2954 2954 2954 2953 2952 2950 2949
3039 3037 3035 3034 3032 3030 3028 3027 3025 3024 3022 3021 3020 3019 3017 3016 3014 3013 3011 3009 3008 3006 3005 3004 3003 3001 3000 2998 2996 2994 2992 2990 2988 2987 2985 2983 2982 2980 2978 2977 2975 2974 2972 2971 2970 2969 2967 2965 2964 2963 2961 2960 2959 2957 2956 2955 2954 2952 2951 2950 2950 2949 2949 2949 2949 2948 2947 2946 2945
3036 3034 3032 3030 3029 3027 3025 3023 3022 3020 3019 3018 3016 3015 3014 3012 3011 3009 3008 3006 3004 3003 3002 3000 2999 2998 2996 2995 2993 2991 2989 2987 2985 2983 2981 2979 2978 2976 2974 2973 2971 2969 2968 2966 2965 2964 2963 2961 2960 2958 2957 2955 2954 2953 2951 2950 2949 2948 2947 2946 2945 2945 2945 2945 2944 2944 2943 2942 2941
3033 3031 3029 3027 3025 3023 3022 3020 3018 3017 3015 3014 3013 3012 3010 3009 3008 3006 3005 3003 3001 2999 2998 2997 2996 2994 2993 2991 2989 2987 2985 2983 2981 2980 2978 2976 2974 2973 2971 2969 2967 2965 2964 2962 2960 2959 2958 2957 2955 2954 2952 2950 2949 2948 2947 2945 2944 2943 2942 2941 2941 2940 2940 2940 2940 2939 2938 2938 2937
3029 3028 3026 3024 3022 3020 3018 3017 3015 3014 3012 3011 3009 3008 3007 3006 3004 3003 3001 3000 2998 2996 2995 2994 2992 2991 2989 2987 2985 2984 2982 2980 2978 2976 2974 2973 2971 2969 2967 2965 2963 2961 2959 2958 2956 2954 2953 2952 2951 2949 2948 2946 2944 2943 2942 2940 2939 2938 2937 2937 2936 2936 2936 2936 2935 2935 2934 2934 2933
3026 3024 3022 3020 3019 3017 3015 3013 3012 3010 3009 3008 3006 3005 3004 3002 3001 2999 2998 2996 2995 2994 2992 2990 2989 2987 2986 2984 2982 2980 2978 2976 2974 2973 2971 2969 2967 2965 2963 2961 2959 2958 2955 2954 2952 2950 2949 2948 2946 2944 2943 2941 2939 2938 2937 2935 2934 2933 2933 2932 2931 2931 2931 2931 2931 2931 2930 2929 2929
3022 3020 3019 3017 3015 3013 3012 3010 3009 3007 3005 3004 3003 3001 3000 2999 2998 2996 2994 2993 2992 2990 2989 2987 2985 2984 2982 2980 2978 2976 2974 2973 2971 2969 2967 2966 2964 2962 2960 2958 2955 2954 2952 2950 2948 2946 2944 2943 2941 2940 2938 2936 2935 2933 2932 2931 2929 2929 2928 2927 2926 2926 2926 2926 2926 2926 2926 2925 2925
3018 3016 3014 3013 3011 3010 3008 3007 3005 3004 3002 3001 2999 2998 2997 2995 2994 2993 2991 2989 2988 2987 2985 2984 2982 2980 2978 2976 2974 2972 2970 2969 2967 2965 2964 2962 2960 2958 2956 2954 2952 2949 2948 2946 2944 2942 2940 2939 2937 2935 2934 2932 2930 2929 2927 2926 2924 2924 2923 2922 2921 2921 2921 2921 2921 2921 2921 2921 2921
3014 3013 3011 3009 3008 3006 3004 3003 3002 3000 2999 2997 2996 2994 2993 2992 2991 2989 2988 2986 2985 2984 2982 2980 2979 2976 2974 2972 2970 2968 2966 2965 2964 2962 2960 2958 2956 2954 2952 2950 2948 2945 2944 2942 2940 2938 2936 2934 2932 2931 2929 2927 2925 2924 2923 2921 2920 2919 2918 2917 2917 2916 2916 2916 2916 2916 2916 2916 2917
3011 3009 3008 3006 3004 3003 3001 3000 2998 2997 2995 2994 2993 2991 2990 2989 2987 2986 2984 2983 2981 2980 2978 2977 2975 2973 2971 2969 2966 2964 2962 2960 2959 2958 2956 2954 2952 2950 2948 2946 2944 2941 2939 2938 2936 2934 2931 2929 2928 2926 2924 2923 2921 2919 2918 2917 2915 2914 2913 2912 2912 2911 2911 2911 2911 2911 2912 2912 2912
3008 3006 3004 3003 3001 2999 2998 2996 2995 2993 2992 2990 2989 2988 2986 2985 2984 2982 2981 2979 2978 2976 2974 2973 2971 2969 2967 2965 2963 2960 2959 2956 2954 2953 2951 2950 2948 2946 2944 2942 2940 2937 2935 2933 2931 2929 2927 2925 2923 2921 2920 2918 2916 2915 2914 2912 2911 2909 2909 2908 2907 2907 2906 2906 2906 2907 2907 2907 2908
3004 3003 3001 2999 2998 2996 2995 2993 2992 2990 2989 2987 2986 2984 2983 2982 2980 2978 2977 2975 2974 2972 2971 2969 2967 2965 2963 2960 2959 2957 2954 2953 2950 2948 2946 2945 2944 2942 2940 2938 2935 2933 2931 2929 2927 2925 2923 2920 2918 2916 2915 2913 2912 2910 2909 2908 2906 2905 2904 2903 2902 2902 2901 2901 2901 2902 2902 2903 2903
3001 3000 2998 2996 2995 2993 2992 2990 2989 2987 2985 2984 2983 2981 2979 2978 2976 2974 2973 2971 2969 2968 2966 2964 2962 2960 2958 2956 2954 2952 2950 2949 2946 2944 2942 2940 2939 2937 2935 2933 2931 2929 2927 2925 2923 2921 2919 2917 2914 2912 2910 2908 2907 2905 2904 2904 2902 2901 2900 2899 2898 2897 2896 2896 2897 2897 2898 2898 2898
2998 2996 2995 2993 2992 2990 2989 2987 2985 2984 2982 2981 2979 2977 2975 2974 2972 2970 2969 2967 2965 2964 2962 2960 2958 2956 2954 2952 2950 2948 2946 2944 2942 2940 2937 2935 2934 2932 2930 2929 2927 2924 2923 2921 2919 2917 2914 2913 2910 2908 2905 2903 2901 2900 2899 2898 2898 2897 2896 2894 2894 2893 2892 2892 2892 2892 2893 2893 2894
2995 2993 2992 2990 2989 2987 2985 2984 2982 2980 2979 2977 2975 2973 2971 2970 2968 2966 2964 2962 2961 2959 2957 2955 2953 2951 2949 2947 2945 2943 2941 2939 2937 2935 2933 2931 2929 2927 2925 2924 2922 2920 2918 2917 2914 2912 2910 2909 2906 2904 2902 2899 2897 2895 2894 2893 2892 2892 2891 2890 2890 2889 2888 2888 2887 2888 2888 2888 2889
2992 2990 2988 2987 2985 2983 2982 2980 2979 2977 2975 2973 2971 2969 2967 2965 2964 2962 2960 2958 2956 2954 2952 2950 2948 2946 2944 2942 2940 2939 2937 2934 2933 2930 2928 2926 2924 2922 2920 2919 2917 2915 2914 2912 2910 2908 2906 2904 2902 2900 2898 2896 2894 2892 2889 2888 2887 2886 2885 2885 2885 2885 2884 2884 2884 2883 2883 2883 2884
2989 2987 2985 2983 2982 2980 2978 2977 2975 2973 2971 2969 2967 2965 2963 2961 2959 2957 2956 2954 2952 2949 2948 2946 2944 2941 2939 2938 2936 2934 2932 2929 2928 2925 2923 2921 2919 2917 2915 2914 2912 2910 2909 2908 2906 2904 2902 2900 2898 2896 2894 2893 2890 2888 2886 2884 2883 2881 2880 2879 2880 2880 2880 2880 2879 2879 2879 2879 2879
2986 2984 2982 2980 2978 2976 2975 2973 2971 2969 2967 2965 2963 2961 2959 2957 2955 2953 2951 2949 2947 2945 2943 2941 2939 2937 2934 2933 2931 2929 2927 2925 2923 2921 2919 2916 2914 2912 2910 2909 2907 2906 2904 2903 2901 2899 2898 2896 2894 2892 2890 2889 2887 2884 2883 2881 2879 2877 2876 2875 2874 2874 2875 2875 2875 2875 2875 2875 2874
2983 2981 2979 2977 2975 2973 2971 2969 2968 2965 2963 2961 2959 2957 2955 2953 2951 2949 2947 2945 2942 2940 2938 2936 2934 2932 2929 2928 2926 2924 2922 2920 2918 2916 2914 2911 2909 2907 2905 2904 2903 2901 2900 2899 2897 2895 2894 2892 2890 2889 2887 2885 2883 2881 2879 2877 2876 2874 2872 2871 2870 2869 2869 2869 2869 2870 2870 2870 2870
2980 2978 2976 2974 2972 2969 2968 2966 2964 2962 2959 2957 2955 2953 2951 2948 2946 2944 2942 2940 2938 2935 2933 2930 2929 2926 2924 2922 2921 2919 2917 2915 2913 2911 2909 2907 2904 2902 2901 2899 2898 2897 2895 2894 2892 2891 2889 2888 2887 2885 2883 2881 2879 2877 2875 2874 2872 2870 2869 2867 2866 2865 2864 2864 2864 2865 2865 2866 2866
2977 2975 2973 2970 2968 2966 2964 2962 2960 2958 2955 2953 2950 2948 2946 2944 2941 2939 2937 2934 2932 2930 2928 2925 2924 2921 2919 2917 2915 2914 2911 2910 2908 2906 2904 2902 2900 2898 2896 2894 2893 2892 2891 2889 2888 2887 2885 2884 2883 2881 2879 2878 2875 2873 2872 2870 2868 2867 2865 2864 2862 2861 2860 2859 2859 2859 2860 2860 2861
2974 2971 2969 2967 2964 2962 2960 2958 2955 2953 2950 2948 2945 2943 2941 2939 2936 2934 2931 2929 2926 2924 2922 2920 2919 2916 2914 2912 2910 2909 2907 2904 2903 2901 2899 2897 2895 2893 2891 2890 2889 2888 2887 2885 2884 2883 2882 2880 2879 2877 2875 2874 2871 2869 2868 2866 2864 2863 2862 2860 2859 2858 2856 2855 2855 2854 2854 2855 2855
2970 2968 2965 2962 2960 2958 2955 2953 2950 2948 2945 2943 2940 2938 2935 2933 2931 2928 2926 2924 2921 2919 2917 2915 2913 2911 2909 2907 2906 2904 2902 2900 2898 2896 2894 2893 2891 2889 2887 2885 2885 2884 2883 2882 2880 2879 2878 2876 2875 2873 2871 2869 2867 2865 2864 2862 2861 2859 2858 2857 2855 2854 2853 2852 2851 2850 2850 2850 2850
2966 2963 2960 2957 2955 2953 2950 2948 2945 2943 2940 2938 2935 2933 2930 2928 2925 2923 2921 2918 2915 2913 2911 2910 2908 2906 2904 2903 2901 2899 2897 2895 2893 2891 2889 2888 2886 2884 2883 2881 2880 2880 2879 2878 2876 2875 2874 2873 2871 2869 2868 2865 2864 2862 2860 2858 2857 2855 2854 2853 2852 2850 2849 2849 2847 2846 2846 2845 2845
2962 2959 2956 2953 2950 2948 2945 2943 2940 2938 2935 2933 2930 2928 2925 2923 2920 2918 2916 2914 2911 2908 2906 2905 2904 2902 2900 2898 2896 2894 2892 2891 2889 2887 2885 2884 2882 2880 2879 2877 2876 2876 2875 2874 2873 2872 2870 2869 2868 2866 2864 2862 2860 2858 2856 2854 2853 2852 2850 2849 2848 2847 2846 2845 2844 2843 2842 2841 2841
2958 2955 2952 2949 2946 2943 2941 2938 2936 2934 2931 2928 2926 2923 2921 2919 2916 2914 2911 2909 2906 2904 2902 2900 2899 2897 2895 2893 2891 2889 2888 2886 2885 2883 2881 2879 2878 2877 2875 2874 2873 2872 2872 2871 2869 2868 2867 2865 2864 2863 2861 2859 2857 2855 2853 2851 2849 2848 2847 2845 2844 2843 2842 2841 2840 2839 2838 2838 2838
2954 2951 2948 2945 2942 2939 2936 2934 2932 2929 2927 2924 2921 2919 2916 2914 2911 2909 2907 2905 2902 2900 2898 2896 2894 2893 2891 2889 2887 2885 2883 2882 2881 2879 2877 2875 2874 2873 2872 2871 2869 2869 2868 2868 2866 2865 2863 2862 2861 2859 2858 2856 2854 2852 2850 2848 2846 2845 2844 2842 2841 2839 2839 2838 2837 2836 2835 2834 2834
2950 2947 2944 2941 2938 2935 2933 2930 2927 2925 2923 2920 2917 2914 2912 2909 2907 2905 2903 2900 2898 2896 2894 2892 2890 2888 2887 2885 2883 2881 2879 2878 2877 2875 2874 2872 2871 2870 2869 2868 2867 2866 2865 2864 2863 2862 2860 2859 2858 2856 2854 2853 2851 2849 2847 2845 2844 2842 2840 2839 2838 2836 2835 2834 2833 2832 2831 2830 2830